Flag for Germany Weather past 2 weeks in Tuttlingen, Baden-Württemberg, Germany

37 °F

Light rain. Overcast.

Feels Like: 37 °F
Forecast: 17 / 33 °F
Wind: 1 mph from North

Location: Konstanz

Current Time: Nov 26, 2015 at 2:18:34 PM

Latest Report: Nov 26, 2015 at 2:00 PM

Visibility: 9 mi

Pressure: 30.03 "Hg (27.74 "Hg at 643m altitude)

Humidity: 89%

Dew point: 34 °F

Location of TuttlingenLocation

Historic Weather in Tuttlingen — Graph


Tuttlingen temperature yesterday

Maximum temperature yesterday: 39 °F (at 2:00 PM)
Minimum temperature yesterday: 34 °F (at 4:00 AM)
Average temperature yesterday: 37 °F

Past Weeks' High & Low Weather Summary

High64 °F (Nov 15, 3:00 PM)100% (Nov 11, 8:00 PM)30.50 "Hg (Nov 11, 8:00 PM)
Low30 °F (Nov 24, 6:00 AM)48% (Nov 15, 11:00 AM)29.44 "Hg (Nov 21, 2:00 PM)
Average46 °F77%30.10 "Hg
* Reported Nov 11 1:00 PM — Nov 26 1:00 PM, Tuttlingen, Weather by CustomWeather, © 2015

Note: Actual official high and low records may vary slightly from our data, if they occured in-between our weather recording intervals... More about our weather records


Tuttlingen weather history for previous 24 hours

Time TempWeatherWind HumidityBarometerVisibility
1:00 PM
Thu, Nov 26
39 °FSprinkles. Overcast.2 mph87%30.02 "Hg11 mi
12:00 PM40 °FOvercast.2 mph84%30.01 "Hg15 mi
11:00 AM39 °FOvercast.2 mph86%30.00 "Hg12 mi
10:00 AM38 °FOvercast.2 mph91%29.98 "Hg9 mi
9:00 AM36 °FLight rain. Low clouds.3 mph91%29.96 "Hg6 mi
8:00 AM36 °FLight rain. Overcast.2 mph92%29.94 "Hg7 mi
7:00 AM36 °FOvercast.2 mph88%29.91 "Hg10 mi
4:00 AM36 °FLight rain. Overcast.1 mph93%29.85 "Hg8 mi
3:00 AM37 °FLight rain. Overcast.2 mph92%29.84 "Hg6 mi
2:00 AM37 °FLight rain. Overcast.1 mph93%29.82 "Hg7 mi
12:00 AM37 °FOvercast.1 mph94%29.81 "Hg7 mi
11:00 PM
Wed, Nov 25
36 °FPassing clouds.1 mph95%29.80 "Hg6 mi
10:00 PM38 °FOvercast.2 mph93%29.80 "Hg7 mi
9:00 PM38 °FLight rain. Low clouds.2 mph91%29.81 "Hg9 mi
8:00 PM38 °FLight rain. Overcast.3 mph90%29.81 "Hg11 mi
7:00 PM38 °FLight rain. Overcast.2 mph91%29.81 "Hg11 mi
6:00 PM38 °FSprinkles. Overcast.3 mph87%29.80 "Hg12 mi
5:00 PM39 °FOvercast.3 mph86%29.80 "Hg12 mi
4:00 PM39 °FLow clouds.3 mph88%29.80 "Hg12 mi
3:00 PM39 °FOvercast.3 mph88%29.80 "Hg12 mi
2:00 PM39 °FLight rain. Low clouds.3 mph89%29.81 "Hg11 mi
Weather by CustomWeather, © 2015

See weather overviewHow to use our weather pages